Regional Weather Roundup
Issued by NWS Green Bay, WI

Home | Current Version | Previous Version | Text Only | Print | Product List | Glossary On
Versions: 1 2 3 4 5 6 7 8 9 10 11 12 13 14 15 16 17 18 19 20 21 22 23 24 25 26 27 28 29 30 31 32 33 34 35 36 37 38 39 40 41 42 43 44 45 46 47 48 49 50
000
ASUS43 KGRB 191310
RWRGRB

NORTH-CENTRAL AND NORTHEAST WISCONSIN REGIONAL WEATHER ROUNDUP
NATIONAL WEATHER SERVICE GREEN BAY WI
800 AM CDT FRI SEP 19 2014

WIZ005-009-010>012-018-019-191400-
NORTH CENTRAL WISCONSIN

CITY           SKY/WX    TMP DP  RH WIND       PRES   REMARKS
IRONWOOD       MOSUNNY   55  52  88 S12G18    29.93F
MANITOWISH WTR MOSUNNY   53  51  94 S13G20    30.01S
ARBOR VITAE    PTSUNNY   55  51  87 S13       30.03F
EAGLE RIVER    CLOUDY    50  49  98 S8        30.03F FOG
LAND O LAKES   PTSUNNY   51  49  93 S9        30.03F
RHINELANDER    PTSUNNY   50  48  93 S8        30.06F FOG
PHILLIPS       CLOUDY    52  50  92 S14       30.01F
ANTIGO         FOG       47  47 100 S10       30.10S VSB 1/2
TOMAHAWK       CLOUDY    50  49  95 S3        30.06F FOG
MERRILL        CLOUDY    50  50  99 S6        30.07F FOG
$$

WIZ013-073-191400-
NORTHEAST WISCONSIN

CITY           SKY/WX    TMP DP  RH WIND       PRES   REMARKS
IRON MOUNTAIN  CLOUDY    49  47  93 S9        30.08F FOG
MARINETTE      CLOUDY    57  54  88 S12       30.11F
OCONTO         CLOUDY    53  53 100 CALM      30.12S
$$

WIZ017-030-035>037-045-191400-
CENTRAL WISCONSIN

CITY           SKY/WX    TMP DP  RH WIND       PRES   REMARKS
MEDFORD        CLOUDY    49  48  97 S8        30.06F FOG
WAUSAU         CLOUDY    50  49  96 S10       30.08F FOG
MOSINEE        CLOUDY    48  48 100 S7        30.11R FOG
MARSHFIELD     CLOUDY    51  50  96 S9        30.08S FOG
WISC RAPIDS    CLOUDY    51  50  96 S7        30.11R FOG
STEVENS POINT  CLOUDY    49  48  99 S8        30.11S FOG
WAUPACA        CLOUDY    53  51  95 SE5       30.12F FOG
SHAWANO        FOG       52  50  94 SW5       30.13S VSB 1/4
CLINTONVILLE   FOG       50  50 100 S8        30.12S VSB 1/2
$$

WIZ038-039-048-051-191400-
FOX VALLEY

CITY           SKY/WX    TMP DP  RH WIND       PRES   REMARKS
NWS GREEN BAY  CLOUDY    55  55 100 S9        30.13F FOG
APPLETON       CLOUDY    55  54  94 S8        30.14S FOG
OSHKOSH        CLOUDY    56  55  97 S12       30.13S FOG
FOND DU LAC    MOSUNNY   56  54  93 S5        30.14S FOG
$$

WIZ022-050-052-191400-
EAST CENTRAL WISCONSIN

CITY           SKY/WX    TMP DP  RH WIND       PRES   REMARKS
STURGEON BAY   CLOUDY    55  54  94 S13G20    30.14S
MANITOWOC      CLOUDY    59  58  96 S12       30.15S FOG
SHEBOYGAN      FOG       53  52  96 SW3       30.15S VSB<1/4
$$

LMZ563-521-522-541>543-191400-
LAKESHORE

STATION/POSITION TIME  TEMP    WIND        PRES    VSBY  WAVE
                       AIR SEA DIR/SP/G                  HT/PER
                 (UTC) (F)     (DEG/KT/KT) (MB)    (MI)  (FT/S)
SHEBOYGAN LKSHOR 1300   56 50  160/ 12/ 12 1021.4R
KEWAUNEE LKSHORE 1300   55     180/  9/ 10 1019.7F
TWO RIVERS CG    1200   55 59              1020.9      6   1
NORTHPORT PIER   1300   57     160/  9/ 17 1020.0F
N MID LAKE BUOY  1300   55 58  180/ 19/ 23 1020.6F         3/ 5
S GREEN BAY BUOY 1200   57     VRB 14/ 16  1020.7F
STURGEON BAY CG  1200   55 54  190/  7     1021.6          4
CHAMBERS ISLAND  1300   58     160/  5/ 10 1020.0F
MENOMINEE LKSHOR 1300   56     160/ 11/ 15 1020.3F
$$


USA.gov is the U.S. government's official web portal to all federal, state and local government web resources and services.